Date String (YYYY-MM-DD hh:mm:ss) UTC,Instrument flags,absolute air pressure of the measurement (hPa),sample flow rate (lpm),inlet stack bypass flow (lpm),air temperature of the measurement (°C),ambient temperature measured by the external sensor (°C),aerosol sample conditioner tube jacket temperature (°C),OPC LED temperature (°C),internal box temperature (°C),relative humidity of the measurement (%),span deviation,mass concentration of particles derived from Lorenz-Mie calculation of OPC scattering (μg/m³),mass concentration of particles derived from Lorenz-Mie calculation of OPC scattering (μg/m³),mass concentration of particles derived from Lorenz-Mie calculation of OPC scattering (μg/m³)
DateTimeUTC,F1_M11,P_M11,Q1_M11,Q2_M11,T1_M11,T2_M11,T3_M11,T4_M11,T5_M11,U1_M11,ZSPAN_M11,X2_M11,X0_M11,X1_M11
2024-02-17 07:00:00,SystemResetWarning,0836.2,4.99,000.00,018.3,017.7,000.0,026.9,020.0,11.8,0000.0,0003.65,0004.16,0003.57
2024-02-17 07:01:00,SystemResetWarning,0836.2,5.00,000.00,018.3,017.7,000.0,026.9,020.0,11.8,0000.0,0003.65,0004.18,0003.57
2024-02-17 07:02:00,SystemResetWarning,0836.2,5.00,000.00,018.3,017.7,000.0,026.9,020.0,11.8,0000.0,0003.68,0004.30,0003.58
2024-02-17 07:03:00,SystemResetWarning,0836.2,5.00,000.00,018.3,017.7,000.0,026.9,020.0,11.8,0000.0,0003.70,0004.37,0003.58
2024-02-17 07:04:00,SystemResetWarning,0836.3,5.00,000.00,018.3,017.6,000.0,026.9,020.0,11.8,0000.0,0003.71,0004.37,0003.59
2024-02-17 07:05:00,SystemResetWarning,0836.4,5.00,000.00,018.3,017.9,000.0,027.0,020.2,11.8,0000.0,0003.73,0004.41,0003.60
2024-02-17 07:06:00,SystemResetWarning,0836.4,5.00,000.00,018.5,018.6,000.0,027.1,020.7,11.7,0000.0,0003.72,0004.39,0003.60
2024-02-17 07:07:00,SystemResetWarning,0836.4,5.00,000.00,018.7,019.1,000.0,027.1,020.9,11.6,0000.0,0003.73,0004.45,0003.60
2024-02-17 07:08:00,SystemResetWarning,0836.3,4.99,000.00,018.7,019.0,000.0,027.0,020.7,11.6,0000.0,0003.73,0004.43,0003.60
2024-02-17 07:09:00,SystemResetWarning,0836.2,5.01,000.00,018.7,018.8,000.0,027.0,020.5,11.6,0000.0,0003.74,0004.44,0003.61
2024-02-17 07:10:00,SystemResetWarning,0836.1,5.00,000.00,018.6,018.6,000.0,027.0,020.4,11.6,0000.0,0003.73,0004.42,0003.61
2024-02-17 07:11:00,SystemResetWarning,0836.1,5.00,000.00,018.6,018.4,000.0,026.9,020.2,11.6,0000.0,0003.72,0004.37,0003.61
2024-02-17 07:12:00,SystemResetWarning,0836.2,5.00,000.00,018.5,018.3,000.0,026.9,020.1,11.6,0000.0,0003.73,0004.38,0003.62
2024-02-17 07:13:00,SystemResetWarning,0836.3,5.00,000.00,018.5,018.1,000.0,026.9,020.1,11.7,0000.0,0003.73,0004.35,0003.63
2024-02-17 07:14:00,SystemResetWarning,0836.4,5.00,000.00,018.4,018.0,000.0,026.9,020.0,11.7,0000.0,0003.73,0004.31,0003.64
2024-02-17 07:15:00,SystemResetWarning,0836.4,5.00,000.00,018.4,017.9,000.0,026.9,020.0,11.8,0000.0,0003.74,0004.32,0003.65
2024-02-17 07:16:00,SystemResetWarning,0836.4,5.00,000.00,018.4,017.8,000.0,026.9,020.0,11.8,0000.0,0003.75,0004.34,0003.65
2024-02-17 07:17:00,SystemResetWarning,0836.4,5.01,000.00,018.3,017.8,000.0,026.9,020.0,11.8,0000.0,0003.76,0004.36,0003.66
2024-02-17 07:18:00,SystemResetWarning,0836.3,5.01,000.00,018.3,017.7,000.0,026.9,020.0,11.8,0000.0,0003.75,0004.30,0003.67
2024-02-17 07:19:00,SystemResetWarning,0836.3,5.00,000.00,018.3,017.7,000.0,026.9,020.0,11.8,0000.0,0003.75,0004.31,0003.67
2024-02-17 07:20:00,SystemResetWarning,0836.2,4.99,000.00,018.3,017.7,000.0,026.9,020.1,11.8,0000.0,0003.75,0004.26,0003.67
2024-02-17 07:21:00,SystemResetWarning,0836.3,5.00,000.00,018.4,018.3,000.0,027.0,020.4,11.8,0000.0,0003.75,0004.23,0003.67
2024-02-17 07:22:00,SystemResetWarning,0836.3,5.01,000.00,018.6,019.0,000.0,027.1,020.9,11.6,0000.0,0003.75,0004.24,0003.68
2024-02-17 07:23:00,SystemResetWarning,0836.4,5.00,000.00,018.8,019.0,000.0,027.1,020.9,11.6,0000.0,0003.75,0004.26,0003.68
2024-02-17 07:24:00,SystemResetWarning,0836.3,4.99,000.00,018.7,018.8,000.0,027.0,020.7,11.6,0000.0,0003.76,0004.24,0003.69
2024-02-17 07:25:00,SystemResetWarning,0836.4,5.00,000.00,018.7,018.7,000.0,027.0,020.5,11.6,0000.0,0003.77,0004.25,0003.70
2024-02-17 07:26:00,SystemResetWarning,0836.4,5.00,000.00,018.7,018.5,000.0,027.0,020.4,11.6,0000.0,0003.78,0004.24,0003.71
2024-02-17 07:27:00,SystemResetWarning,0836.3,5.01,000.00,018.6,018.3,000.0,026.9,020.3,11.6,0000.0,0003.80,0004.25,0003.74
2024-02-17 07:28:00,SystemResetWarning,0836.2,5.00,000.00,018.6,018.2,000.0,026.9,020.2,11.7,0000.0,0003.84,0004.28,0003.79
2024-02-17 07:29:00,SystemResetWarning,0836.2,5.00,000.00,018.5,018.1,000.0,026.9,020.2,11.7,0000.0,0003.88,0004.37,0003.83
2024-02-17 07:30:00,SystemResetWarning,0836.1,5.00,000.00,018.5,018.0,000.0,026.9,020.1,11.7,0000.0,0003.92,0004.43,0003.86
2024-02-17 07:31:00,SystemResetWarning,0836.1,5.00,000.00,018.4,017.9,000.0,026.9,020.0,11.7,0000.0,0003.95,0004.51,0003.89
2024-02-17 07:32:00,SystemResetWarning,0836.1,5.00,000.00,018.4,017.8,000.0,026.9,020.0,11.8,0000.0,0003.99,0004.61,0003.92
2024-02-17 07:33:00,SystemResetWarning,0836.1,5.00,000.00,018.4,017.8,000.0,026.9,020.0,11.8,0000.0,0004.02,0004.67,0003.94
2024-02-17 07:34:00,SystemResetWarning,0836.2,5.00,000.00,018.3,017.7,000.0,026.9,020.0,11.8,0000.0,0004.05,0004.68,0003.96
2024-02-17 07:35:00,SystemResetWarning,0836.2,5.00,000.00,018.3,017.6,000.0,026.9,020.0,11.8,0000.0,0004.05,0004.70,0003.97
2024-02-17 07:36:00,SystemResetWarning,0836.2,5.00,000.00,018.3,017.7,000.0,026.9,020.1,11.8,0000.0,0004.06,0004.69,0003.98
2024-02-17 07:37:00,SystemResetWarning,0836.3,5.02,000.00,018.4,018.3,000.0,027.1,020.5,11.8,0000.0,0004.08,0004.77,0003.99
2024-02-17 07:38:00,SystemResetWarning,0836.4,4.99,000.00,018.7,019.1,000.0,027.1,020.9,11.6,0000.0,0004.10,0004.93,0003.99
2024-02-17 07:39:00,SystemResetWarning,0836.5,4.98,000.00,018.8,019.1,000.0,027.1,020.9,11.6,0000.0,0004.09,0004.93,0003.97
2024-02-17 07:40:00,SystemResetWarning,0836.4,5.00,000.00,018.8,018.9,000.0,027.1,020.7,11.6,0000.0,0004.08,0004.90,0003.96
2024-02-17 07:41:00,SystemResetWarning,0836.3,5.00,000.00,018.7,018.7,000.0,027.0,020.6,11.6,0000.0,0004.07,0004.86,0003.96
2024-02-17 07:42:00,SystemResetWarning,0836.3,4.99,000.00,018.7,018.6,000.0,027.0,020.5,11.6,0000.0,0004.07,0004.87,0003.96
2024-02-17 07:43:00,SystemResetWarning,0836.2,4.99,000.00,018.7,018.4,000.0,027.0,020.4,11.6,0000.0,0004.07,0004.93,0003.96
2024-02-17 07:44:00,SystemResetWarning,0836.2,5.00,000.00,018.6,018.3,000.0,027.0,020.3,11.6,0000.0,0004.07,0004.93,0003.97
2024-02-17 07:45:00,SystemResetWarning,0836.3,5.00,000.00,018.6,018.2,000.0,027.0,020.2,11.7,0000.0,0004.07,0004.91,0003.98
2024-02-17 07:46:00,SystemResetWarning,0836.2,5.00,000.00,018.5,018.1,000.0,026.9,020.1,11.7,0000.0,0004.08,0004.90,0004.00
2024-02-17 07:47:00,SystemResetWarning,0836.2,5.01,000.00,018.5,018.0,000.0,026.9,020.1,11.7,0000.0,0004.10,0004.98,0004.01
2024-02-17 07:48:00,SystemResetWarning,0836.2,5.00,000.00,018.4,017.9,000.0,026.9,020.1,11.7,0000.0,0004.10,0004.98,0004.01
2024-02-17 07:49:00,SystemResetWarning,0836.2,5.00,000.00,018.4,017.9,000.0,026.9,020.0,11.8,0000.0,0004.09,0004.84,0004.01
2024-02-17 07:50:00,SystemResetWarning,0836.2,5.00,000.00,018.4,017.8,000.0,026.9,020.0,11.8,0000.0,0004.11,0004.87,0004.02
2024-02-17 07:51:00,SystemResetWarning,0836.2,5.00,000.00,018.4,017.8,000.0,026.9,020.0,11.8,0000.0,0004.11,0004.88,0004.03
2024-02-17 07:52:00,SystemResetWarning,0836.2,4.99,000.00,018.3,017.7,000.0,027.0,020.0,11.8,0000.0,0004.12,0004.90,0004.04
2024-02-17 07:53:00,SystemResetWarning,0836.2,5.00,000.00,018.3,017.7,000.0,027.0,020.0,11.8,0000.0,0004.14,0004.95,0004.04
2024-02-17 07:54:00,SystemResetWarning,0836.1,5.00,000.00,018.3,017.8,000.0,027.0,020.2,11.8,0000.0,0004.14,0004.89,0004.04
2024-02-17 07:55:00,SystemResetWarning,0836.1,5.01,000.00,018.5,018.6,000.0,027.1,020.7,11.8,0000.0,0004.15,0004.92,0004.04
2024-02-17 07:56:00,SystemResetWarning,0836.1,4.99,000.00,018.7,019.1,000.0,027.2,021.0,11.6,0000.0,0004.16,0004.95,0004.04
2024-02-17 07:57:00,SystemResetWarning,0835.9,4.99,000.00,018.7,018.9,000.0,027.1,020.7,11.6,0000.0,0004.16,0005.10,0004.03
2024-02-17 07:58:00,SystemResetWarning,0835.9,5.00,000.00,018.7,018.7,000.0,027.0,020.5,11.6,0000.0,0004.16,0005.06,0004.04
2024-02-17 07:59:00,SystemResetWarning,0835.9,5.00,000.00,018.6,018.5,000.0,027.0,020.3,11.6,0000.0,0004.17,0005.06,0004.05
